When you browse on this site, cookies collect data to enhance your experience and personalize the content and advertising you see.
Visit our Privacy Policy to learn more. By continuing to use the site, you agree to this use of cookies and data.
  • In Latvia
  • List of Countries
  • For 7 days
  • Water Temperature
  • Satellite Maps
  • Weather Map
  • Weather Widgets
  • user-avatar
    Login

    Hourly Weather Emona

    Today, 19 January, Saturday

    Time Temperature Precipitation Wind Pressure Humidity
    00:00 +7°C° 0 mm 3 mps 761 mmHg 87%
    01:00 +5°C° 0 mm 3 mps 761 mmHg 86%
    02:00 +5°C° 0 mm 3 mps 761 mmHg 86%
    03:00 +5°C° 0 mm 3 mps 762 mmHg 83%
    04:00 +5°C° 0 mm 3 mps 762 mmHg 81%
    05:00 +4°C° 0 mm 3 mps 762 mmHg 79%
    06:00 +5°C° 0 mm 2 mps 762 mmHg 78%
    07:00 +5°C° 0 mm 2 mps 763 mmHg 76%
    08:00 +5°C° 0 mm 2 mps 763 mmHg 75%
    09:00 +6°C° 0 mm 2 mps 764 mmHg 71%
    10:00 +7°C° 0 mm 2 mps 764 mmHg 67%
    11:00 +8°C° 0 mm 3 mps 764 mmHg 62%
    12:00 +8°C° 0 mm 3 mps 764 mmHg 65%
    13:00 +7°C° 0 mm 4 mps 764 mmHg 67%
    14:00 +7°C° 0 mm 4 mps 764 mmHg 70%
    15:00 +6°C° 0 mm 4 mps 764 mmHg 75%
    16:00 +6°C° 0 mm 4 mps 764 mmHg 80%
    17:00 +5°C° 0 mm 4 mps 764 mmHg 86%
    18:00 +5°C° 0.1 mm 4 mps 765 mmHg 87%
    19:00 +5°C° 0.1 mm 4 mps 765 mmHg 88%
    20:00 +5°C° 0.1 mm 4 mps 765 mmHg 88%
    21:00 +5°C° 0.1 mm 4 mps 765 mmHg 89%
    22:00 +5°C° 0.1 mm 4 mps 765 mmHg 89%
    23:00 +5°C° 0.1 mm 4 mps 765 mmHg 90%

    Tomorrow, 20 January, Sunday

    Time Temperature Precipitation Wind Pressure Humidity
    00:00 +5°C° 0.1 mm 4 mps 764 mmHg 91%
    01:00 +5°C° 0.1 mm 4 mps 764 mmHg 91%
    02:00 +6°C° 0.1 mm 4 mps 764 mmHg 92%
    03:00 +6°C° 0.1 mm 4 mps 764 mmHg 93%
    04:00 +6°C° 0.1 mm 4 mps 763 mmHg 94%
    05:00 +7°C° 0.1 mm 3 mps 763 mmHg 94%
    06:00 +7°C° 0.1 mm 3 mps 763 mmHg 95%
    07:00 +7°C° 0.1 mm 3 mps 763 mmHg 95%
    08:00 +7°C° 0.1 mm 3 mps 763 mmHg 96%
    09:00 +7°C° 0.2 mm 3 mps 763 mmHg 95%
    10:00 +8°C° 0.2 mm 3 mps 763 mmHg 93%
    11:00 +9°C° 0.2 mm 2 mps 762 mmHg 92%
    12:00 +9°C° 0.1 mm 2 mps 762 mmHg 90%
    13:00 +10°C° 0.1 mm 2 mps 761 mmHg 88%
    14:00 +10°C° 0.1 mm 2 mps 761 mmHg 86%
    15:00 +10°C° 0.1 mm 2 mps 760 mmHg 87%
    16:00 +11°C° 0.1 mm 1 mps 760 mmHg 88%
    17:00 +10°C° 0.1 mm 1 mps 760 mmHg 89%
    18:00 +10°C° 0.2 mm 1 mps 760 mmHg 91%
    19:00 +9°C° 0.2 mm 2 mps 760 mmHg 92%
    20:00 +9°C° 0.2 mm 2 mps 760 mmHg 93%
    21:00 +9°C° 0.5 mm 2 mps 760 mmHg 93%
    22:00 +9°C° 0.5 mm 2 mps 760 mmHg 94%
    23:00 +9°C° 0.5 mm 2 mps 760 mmHg 94%

    Day after tomorrow, 21 January, Monday

    Time Temperature Precipitation Wind Pressure Humidity
    00:00 +9°C° 0.3 mm 2 mps 760 mmHg 94%
    01:00 +8°C° 0.3 mm 2 mps 760 mmHg 94%
    02:00 +8°C° 0.3 mm 2 mps 760 mmHg 94%
    03:00 +8°C° 0 mm 2 mps 760 mmHg 94%
    04:00 +8°C° 0 mm 2 mps 760 mmHg 93%
    05:00 +8°C° 0 mm 2 mps 760 mmHg 93%
    06:00 +7°C° 0 mm 2 mps 761 mmHg 92%
    07:00 +7°C° 0 mm 2 mps 761 mmHg 90%
    08:00 +7°C° 0 mm 2 mps 761 mmHg 89%
    09:00 +7°C° 0 mm 2 mps 762 mmHg 85%
    10:00 +7°C° 0 mm 2 mps 762 mmHg 81%
    11:00 +8°C° 0 mm 2 mps 763 mmHg 78%
    12:00 +8°C° 0 mm 2 mps 762 mmHg 76%
    13:00 +8°C° 0 mm 3 mps 762 mmHg 74%
    14:00 +8°C° 0 mm 3 mps 762 mmHg 72%
    15:00 +8°C° 0 mm 3 mps 762 mmHg 74%
    16:00 +7°C° 0 mm 3 mps 763 mmHg 76%
    17:00 +7°C° 0 mm 3 mps 763 mmHg 78%
    18:00 +5°C° 0 mm 3 mps 763 mmHg 80%
    19:00 +5°C° 0 mm 3 mps 764 mmHg 81%
    20:00 +4°C° 0 mm 3 mps 764 mmHg 83%
    21:00 +4°C° 0 mm 3 mps 764 mmHg 83%
    22:00 +4°C° 0 mm 3 mps 764 mmHg 84%
    23:00 +4°C° 0 mm 3 mps 764 mmHg 84%

    22 January, Tuesday

    Time Temperature Precipitation Wind Pressure Humidity
    00:00 +4°C° 0 mm 3 mps 764 mmHg 85%
    01:00 +4°C° 0 mm 3 mps 764 mmHg 86%
    02:00 +4°C° 0 mm 3 mps 764 mmHg 87%
    03:00 +4°C° 0.1 mm 3 mps 764 mmHg 87%
    04:00 +4°C° 0.1 mm 3 mps 763 mmHg 88%
    05:00 +4°C° 0.1 mm 3 mps 763 mmHg 89%
    06:00 +4°C° 0.1 mm 3 mps 763 mmHg 90%
    07:00 +4°C° 0.1 mm 4 mps 763 mmHg 90%
    08:00 +4°C° 0.1 mm 4 mps 763 mmHg 90%
    09:00 +5°C° 0 mm 4 mps 763 mmHg 89%
    10:00 +5°C° 0 mm 4 mps 763 mmHg 88%
    11:00 +6°C° 0 mm 4 mps 762 mmHg 87%
    12:00 +6°C° 0.1 mm 4 mps 762 mmHg 86%
    13:00 +7°C° 0.1 mm 4 mps 761 mmHg 85%
    14:00 +7°C° 0.1 mm 4 mps 760 mmHg 85%
    15:00 +7°C° 0 mm 4 mps 760 mmHg 87%
    16:00 +7°C° 0 mm 4 mps 759 mmHg 89%
    17:00 +7°C° 0 mm 4 mps 759 mmHg 91%
    18:00 +7°C° 0 mm 4 mps 758 mmHg 92%
    19:00 +7°C° 0 mm 4 mps 758 mmHg 94%
    20:00 +6°C° 0 mm 4 mps 758 mmHg 95%
    21:00 +6°C° 0 mm 4 mps 757 mmHg 95%
    22:00 +7°C° 0 mm 3 mps 757 mmHg 95%
    23:00 +7°C° 0 mm 3 mps 756 mmHg 95%

    23 January, Wednesday

    Time Temperature Precipitation Wind Pressure Humidity
    00:00 +7°C° 0 mm 3 mps 756 mmHg 94%
    01:00 +7°C° 0 mm 3 mps 755 mmHg 93%
    02:00 +7°C° 0 mm 3 mps 754 mmHg 93%
    03:00 +6°C° 1 mm 4 mps 753 mmHg 93%
    04:00 +7°C° 1 mm 4 mps 753 mmHg 93%
    05:00 +7°C° 1 mm 5 mps 752 mmHg 93%
    06:00 +7°C° 1.3 mm 5 mps 751 mmHg 91%
    07:00 +8°C° 1.3 mm 5 mps 751 mmHg 89%
    08:00 +8°C° 1.3 mm 5 mps 751 mmHg 86%
    09:00 +8°C° 0.5 mm 6 mps 750 mmHg 86%
    10:00 +9°C° 0.5 mm 6 mps 750 mmHg 86%
    11:00 +9°C° 0.5 mm 7 mps 750 mmHg 85%
    12:00 +10°C° 0.2 mm 6 mps 749 mmHg 81%
    13:00 +11°C° 0.2 mm 6 mps 749 mmHg 76%
    14:00 +13°C° 0.2 mm 6 mps 748 mmHg 71%
    15:00 +13°C° 0.2 mm 6 mps 748 mmHg 72%
    16:00 +12°C° 0.2 mm 5 mps 748 mmHg 73%
    17:00 +11°C° 0.2 mm 4 mps 748 mmHg 74%
    18:00 +10°C° 0.1 mm 5 mps 749 mmHg 75%
    19:00 +9°C° 0.1 mm 5 mps 749 mmHg 76%
    20:00 +9°C° 0.1 mm 5 mps 749 mmHg 77%
    21:00 +8°C° 0 mm 5 mps 750 mmHg 77%
    22:00 +8°C° 0 mm 5 mps 750 mmHg 77%
    23:00 +8°C° 0 mm 4 mps 750 mmHg 78%

    24 January, Thursday

    Time Temperature Precipitation Wind Pressure Humidity
    00:00 +7°C° 0 mm 4 mps 750 mmHg 79%
    01:00 +7°C° 0 mm 4 mps 750 mmHg 80%
    02:00 +7°C° 0 mm 4 mps 750 mmHg 81%
    03:00 +7°C° 0 mm 4 mps 750 mmHg 83%
    04:00 +8°C° 0 mm 3 mps 750 mmHg 85%
    05:00 +7°C° 0 mm 3 mps 750 mmHg 87%
    06:00 +7°C° 0 mm 3 mps 750 mmHg 89%
    07:00 +8°C° 0 mm 3 mps 750 mmHg 90%
    08:00 +8°C° 0 mm 3 mps 750 mmHg 91%
    09:00 +9°C° 0 mm 3 mps 750 mmHg 87%
    10:00 +10°C° 0 mm 4 mps 750 mmHg 84%
    11:00 +11°C° 0 mm 4 mps 750 mmHg 80%
    12:00 +11°C° 0 mm 4 mps 749 mmHg 79%
    13:00 +11°C° 0 mm 4 mps 749 mmHg 78%
    14:00 +12°C° 0 mm 4 mps 749 mmHg 77%
    15:00 +11°C° 0.3 mm 4 mps 749 mmHg 81%
    16:00 +10°C° 0.3 mm 3 mps 749 mmHg 85%
    17:00 +10°C° 0.3 mm 3 mps 749 mmHg 89%
    18:00 +10°C° 0.8 mm 3 mps 749 mmHg 90%
    19:00 +10°C° 0.8 mm 3 mps 749 mmHg 90%
    20:00 +10°C° 0.8 mm 3 mps 749 mmHg 90%
    21:00 +10°C° 0 mm 3 mps 749 mmHg 89%
    22:00 +9°C° 0 mm 3 mps 749 mmHg 88%
    23:00 +9°C° 0 mm 3 mps 750 mmHg 87%
    Show more